Meteo Giornale » Osservazioni meteo Stati Uniti (USA) » Santa Monica

ore: 10:51 - Osservazioni Meteo Santa Monica
Lat. 34° 0' N Lon. 118° 27' W Alt. 53 metri s.l.m.

poco_nuvoloso

22 °C

Poco Nuvoloso

Temp. 24 Ore

17 °C

26 °C

Nord

7.4 Km/h

Dew point 16 °C

Umidità 68 %

Visibilità  10 Km

Il sole sorge alle ore 06:27

Il sole tramonta alle ore 19:19

Data e Ora Cielo e Fenomeni T °C DP °C Um. % Pres. hPa Vis. km Vento km/h
Oggi h: 10:51 poco_nuvoloso Poco Nuvoloso 22 16 68 1016 10 N 7.4
Oggi h: 10:05 nuvoloso Nuvoloso 22 16 68 1016 10 N 0
Oggi h: 09:51 molto_nuvoloso Molto Nuvoloso 21 16 73 1016 10 N 5.5
Oggi h: 08:51 coperto Coperto 20 16 77 1016 10 N 5.5
Oggi h: 07:51 molto_nuvoloso Molto Nuvoloso 19 16 82 1015 10 N 0
Oggi h: 07:49 molto_nuvoloso Molto Nuvoloso 19 16 82 1015 10 N 0
Oggi h: 06:51 sereno Sereno 17 14 82 1014 10 N 5.5
Oggi h: 05:51 sereno Sereno 17 15 88 1014 10 N 5.5
Oggi h: 04:51 sereno Sereno 17 16 93 1014 10 N 0
Oggi h: 03:51 sereno Sereno 17 15 88 1014 10 N 5.5
Oggi h: 02:51 sereno Sereno 18 16 88 1014 10 N 0
Oggi h: 01:51 sereno Sereno 18 16 88 1014 10 N 0
Oggi h: 00:51 nuvoloso Nuvoloso 18 16 88 1014 10 N 0
Oggi h: 00:35 molto_nuvoloso Molto Nuvoloso 18 16 88 1014 10 N 0
Ieri h: 23:51 sereno Sereno 19 16 82 1014 10 N 0
Ieri h: 22:51 sereno Sereno 20 16 77 1014 10 N 5.5
Ieri h: 21:51 sereno Sereno 20 16 77 1014 10 S/SO 7.4
Ieri h: 20:51 sereno Sereno 21 16 73 1012 10 S/SO 7.4
Ieri h: 18:51 sereno Sereno 22 17 73 1012 10 O/SO 13
Ieri h: 17:51 sereno Sereno 23 17 68 1012 10 SO 16.7
Ieri h: 16:51 sereno Sereno 24 18 69 1012 10 SO 14.8
Ieri h: 15:51 sereno Sereno 24 18 69 1012 10 SO 14.8
Ieri h: 13:51 sereno Sereno 25 18 65 1013 10 SO 13
Ieri h: 12:51 sereno Sereno 26 18 61 1014 10 S/SO 18.5
Ieri h: 11:51 sereno Sereno 24 18 69 1014 10 SO 13